Time,TemperatureF,DewpointF,PressureIn,WindDirection,WindDirectionDegrees,WindSpeedMPH,WindSpeedGustMPH,Humidity,HourlyPrecipIn,Conditions,Clouds,dailyrainin,SoftwareType,DateUTC
2017-05-29 00:04:00,59.2,54.4,29.73,WNW,283,0.0,0.0,84,0.00,,---,0.00,VWS V15.00,2017-05-29 05:04:00,
2017-05-29 00:09:00,59.1,54.3,29.74,WNW,283,0.0,0.0,84,0.00,,---,0.00,VWS V15.00,2017-05-29 05:09:00,
2017-05-29 00:14:00,59.0,54.2,29.74,WNW,283,0.0,0.0,84,0.00,,---,0.00,VWS V15.00,2017-05-29 05:14:00,
2017-05-29 00:19:00,58.9,54.1,29.74,WSW,242,0.0,0.0,84,0.00,,---,0.00,VWS V15.00,2017-05-29 05:19:00,
2017-05-29 00:22:00,58.8,54.0,29.74,WSW,242,0.0,0.0,84,0.00,,---,0.00,VWS V15.00,2017-05-29 05:22:00,
2017-05-29 00:27:00,58.7,53.9,29.74,WSW,242,0.0,0.0,84,0.00,,---,0.00,VWS V15.00,2017-05-29 05:27:00,
2017-05-29 00:32:00,58.7,53.9,29.74,WSW,242,0.0,0.0,84,0.00,,---,0.00,VWS V15.00,2017-05-29 05:32:00,
2017-05-29 00:37:00,58.5,53.4,29.74,WSW,242,0.0,0.0,83,0.00,,---,0.00,VWS V15.00,2017-05-29 05:37:00,
2017-05-29 00:43:00,58.5,53.7,29.74,WSW,242,0.0,0.0,84,0.00,,---,0.00,VWS V15.00,2017-05-29 05:43:00,
2017-05-29 00:48:00,58.3,53.5,29.74,WSW,242,0.0,0.0,84,0.00,,---,0.00,VWS V15.00,2017-05-29 05:48:00,
2017-05-29 00:53:00,58.3,53.5,29.74,WSW,242,0.0,0.0,84,0.00,,---,0.00,VWS V15.00,2017-05-29 05:53:00,
2017-05-29 00:58:00,58.2,53.4,29.74,WSW,242,0.0,0.0,84,0.00,,---,0.00,VWS V15.00,2017-05-29 05:58:00,
2017-05-29 01:03:00,58.2,53.7,29.74,SW,234,0.0,0.0,85,0.00,,---,0.00,VWS V15.00,2017-05-29 06:03:00,
2017-05-29 01:08:00,58.2,53.7,29.74,SW,235,0.0,0.0,85,0.00,,---,0.00,VWS V15.00,2017-05-29 06:08:00,
2017-05-29 01:13:00,58.3,53.8,29.74,SW,234,0.0,0.0,85,0.00,,---,0.00,VWS V15.00,2017-05-29 06:13:00,
2017-05-29 01:18:00,58.4,53.9,29.75,SW,234,0.0,0.0,85,0.00,,---,0.00,VWS V15.00,2017-05-29 06:18:00,
2017-05-29 01:23:00,58.5,54.0,29.75,SW,227,0.0,0.0,85,0.00,,---,0.00,VWS V15.00,2017-05-29 06:23:00,
2017-05-29 01:28:00,58.6,53.8,29.74,SW,228,0.0,0.0,84,0.00,,---,0.00,VWS V15.00,2017-05-29 06:28:00,
2017-05-29 01:33:00,58.8,54.0,29.75,SW,228,0.0,0.0,84,0.00,,---,0.00,VWS V15.00,2017-05-29 06:33:00,
2017-05-29 01:38:00,58.9,53.8,29.75,SW,228,0.0,0.0,83,0.00,,---,0.00,VWS V15.00,2017-05-29 06:38:00,
2017-05-29 01:43:00,58.9,53.8,29.75,SW,228,0.0,0.0,83,0.00,,---,0.00,VWS V15.00,2017-05-29 06:43:00,
2017-05-29 01:48:00,58.9,53.8,29.75,SW,226,0.0,0.0,83,0.00,,---,0.00,VWS V15.00,2017-05-29 06:48:00,
2017-05-29 01:53:00,58.9,53.8,29.75,SW,224,0.0,0.0,83,0.00,,---,0.00,VWS V15.00,2017-05-29 06:53:00,
2017-05-29 02:03:00,58.8,53.7,29.75,SW,225,0.0,0.0,83,0.00,,---,0.00,VWS V15.00,2017-05-29 07:03:00,
2017-05-29 02:08:00,58.7,53.6,29.74,SW,226,0.0,0.0,83,0.00,,---,0.00,VWS V15.00,2017-05-29 07:08:00,
2017-05-29 02:13:00,58.7,53.6,29.74,SW,228,0.0,0.0,83,0.00,,---,0.00,VWS V15.00,2017-05-29 07:13:00,
2017-05-29 02:18:00,58.7,53.6,29.74,SW,219,0.0,0.0,83,0.00,,---,0.00,VWS V15.00,2017-05-29 07:18:00,
2017-05-29 02:23:00,58.6,53.8,29.74,SW,226,0.0,0.0,84,0.00,,---,0.00,VWS V15.00,2017-05-29 07:23:00,
2017-05-29 02:28:00,58.5,53.7,29.74,SW,226,0.0,0.0,84,0.00,,---,0.00,VWS V15.00,2017-05-29 07:28:00,
2017-05-29 02:34:00,58.4,53.6,29.74,SW,219,0.0,0.0,84,0.00,,---,0.00,VWS V15.00,2017-05-29 07:34:00,
2017-05-29 02:39:00,58.3,53.5,29.74,SW,222,0.0,0.0,84,0.00,,---,0.00,VWS V15.00,2017-05-29 07:39:00,
2017-05-29 02:44:00,58.2,53.7,29.74,SW,222,0.0,0.0,85,0.00,,---,0.00,VWS V15.00,2017-05-29 07:44:00,
2017-05-29 02:49:00,58.0,53.5,29.74,SW,221,0.0,0.0,85,0.00,,---,0.00,VWS V15.00,2017-05-29 07:49:00,
2017-05-29 02:54:00,57.9,53.4,29.74,SW,221,0.0,0.0,85,0.00,,---,0.00,VWS V15.00,2017-05-29 07:54:00,
2017-05-29 02:59:00,57.8,53.3,29.74,SW,221,0.0,0.0,85,0.00,,---,0.00,VWS V15.00,2017-05-29 07:59:00,
2017-05-29 03:04:00,57.7,53.2,29.74,SW,221,0.0,0.0,85,0.00,,---,0.00,VWS V15.00,2017-05-29 08:04:00,
2017-05-29 03:09:00,57.6,53.5,29.74,SW,222,0.0,0.0,86,0.00,,---,0.00,VWS V15.00,2017-05-29 08:09:00,
2017-05-29 03:14:00,57.6,53.1,29.74,SW,228,0.0,0.0,85,0.00,,---,0.00,VWS V15.00,2017-05-29 08:14:00,
2017-05-29 03:19:00,57.6,53.1,29.74,SW,230,0.0,0.0,85,0.00,,---,0.00,VWS V15.00,2017-05-29 08:19:00,
2017-05-29 03:24:00,57.6,53.1,29.74,SW,230,0.0,0.0,85,0.00,,---,0.00,VWS V15.00,2017-05-29 08:24:00,
2017-05-29 03:29:00,57.5,52.7,29.74,SW,230,0.0,0.0,84,0.00,,---,0.00,VWS V15.00,2017-05-29 08:29:00,
2017-05-29 03:34:00,57.4,52.9,29.74,SW,230,0.0,0.0,85,0.00,,---,0.00,VWS V15.00,2017-05-29 08:34:00,
2017-05-29 03:39:00,57.2,53.1,29.75,SW,232,0.0,0.0,86,0.00,,---,0.00,VWS V15.00,2017-05-29 08:39:00,
2017-05-29 03:44:00,57.2,52.7,29.75,SW,227,0.0,0.0,85,0.00,,---,0.00,VWS V15.00,2017-05-29 08:44:00,
2017-05-29 03:49:00,57.2,52.7,29.75,SW,223,0.0,0.0,85,0.00,,---,0.00,VWS V15.00,2017-05-29 08:49:00,
2017-05-29 03:54:00,57.2,52.7,29.75,SW,229,0.0,0.0,85,0.00,,---,0.00,VWS V15.00,2017-05-29 08:54:00,
2017-05-29 04:00:00,57.3,52.8,29.74,SW,221,0.0,0.0,85,0.00,,---,0.00,VWS V15.00,2017-05-29 09:00:00,
2017-05-29 04:05:00,57.3,52.8,29.74,WSW,238,0.0,0.0,85,0.00,,---,0.00,VWS V15.00,2017-05-29 09:05:00,
2017-05-29 04:10:00,57.3,53.2,29.74,SW,234,0.0,0.0,86,0.00,,---,0.00,VWS V15.00,2017-05-29 09:10:00,
2017-05-29 04:15:00,57.2,52.7,29.75,SW,220,0.0,0.0,85,0.00,,---,0.00,VWS V15.00,2017-05-29 09:15:00,
2017-05-29 04:20:00,57.2,53.1,29.74,SW,220,0.0,0.0,86,0.00,,---,0.00,VWS V15.00,2017-05-29 09:20:00,
2017-05-29 04:25:00,57.1,53.0,29.75,SW,218,0.0,0.0,86,0.00,,---,0.00,VWS V15.00,2017-05-29 09:25:00,
2017-05-29 04:30:00,57.1,53.0,29.75,SW,227,0.0,0.0,86,0.00,,---,0.00,VWS V15.00,2017-05-29 09:30:00,
2017-05-29 04:35:00,57.2,52.7,29.75,SW,231,0.0,0.0,85,0.00,,---,0.00,VWS V15.00,2017-05-29 09:35:00,
2017-05-29 04:40:00,57.3,52.8,29.75,SW,223,0.0,0.0,85,0.00,,---,0.00,VWS V15.00,2017-05-29 09:40:00,
2017-05-29 04:45:00,57.3,52.8,29.75,WSW,239,0.0,0.0,85,0.00,,---,0.00,VWS V15.00,2017-05-29 09:45:00,
2017-05-29 04:50:00,57.3,53.2,29.75,WSW,242,0.0,0.0,86,0.00,,---,0.00,VWS V15.00,2017-05-29 09:50:00,
2017-05-29 04:55:00,57.3,52.8,29.75,SW,236,0.0,0.0,85,0.00,,---,0.00,VWS V15.00,2017-05-29 09:55:00,
2017-05-29 05:00:00,57.3,53.2,29.75,SW,233,0.0,0.0,86,0.00,,---,0.00,VWS V15.00,2017-05-29 10:00:00,
2017-05-29 05:05:00,57.2,53.1,29.75,WSW,249,0.0,0.0,86,0.00,,---,0.00,VWS V15.00,2017-05-29 10:05:00,
2017-05-29 05:10:00,57.3,53.2,29.75,SW,236,0.0,0.0,86,0.00,,---,0.00,VWS V15.00,2017-05-29 10:10:00,
2017-05-29 05:15:00,57.3,53.2,29.74,West,268,0.0,1.0,86,0.00,,---,0.00,VWS V15.00,2017-05-29 10:15:00,
2017-05-29 05:20:00,57.3,52.8,29.75,WSW,243,0.0,1.0,85,0.00,,---,0.00,VWS V15.00,2017-05-29 10:20:00,
2017-05-29 05:25:00,57.3,53.2,29.75,WSW,241,0.0,1.0,86,0.00,,---,0.00,VWS V15.00,2017-05-29 10:25:00,
2017-05-29 05:30:00,57.3,52.8,29.76,SW,223,0.0,0.0,85,0.00,,---,0.00,VWS V15.00,2017-05-29 10:30:00,
2017-05-29 05:35:00,57.4,53.2,29.76,WSW,237,0.0,1.0,86,0.00,,---,0.00,VWS V15.00,2017-05-29 10:35:00,
2017-05-29 05:40:00,57.5,53.3,29.76,SW,231,0.0,1.0,86,0.00,,---,0.00,VWS V15.00,2017-05-29 10:40:00,
2017-05-29 05:45:00,57.5,53.0,29.76,WSW,238,0.0,2.0,85,0.00,,---,0.00,VWS V15.00,2017-05-29 10:45:00,
2017-05-29 05:50:00,57.6,53.1,29.76,WSW,251,0.0,2.0,85,0.00,,---,0.00,VWS V15.00,2017-05-29 10:50:00,
2017-05-29 05:56:00,57.7,53.2,29.77,SW,224,0.0,2.0,85,0.00,,---,0.00,VWS V15.00,2017-05-29 10:56:00,
2017-05-29 06:01:00,57.8,53.3,29.77,WSW,250,0.0,1.0,85,0.00,,---,0.00,VWS V15.00,2017-05-29 11:01:00,
2017-05-29 06:06:00,57.9,53.4,29.77,SW,232,0.0,1.0,85,0.00,,---,0.00,VWS V15.00,2017-05-29 11:06:00,
2017-05-29 06:11:00,58.0,53.2,29.77,WSW,244,0.0,1.0,84,0.00,,---,0.00,VWS V15.00,2017-05-29 11:11:00,
2017-05-29 06:16:00,58.3,53.5,29.77,WSW,240,0.0,4.0,84,0.00,,---,0.00,VWS V15.00,2017-05-29 11:16:00,
2017-05-29 06:21:00,58.9,53.8,29.77,West,267,0.0,4.0,83,0.00,,---,0.00,VWS V15.00,2017-05-29 11:21:00,
2017-05-29 06:26:00,59.6,53.8,29.77,West,262,0.0,4.0,81,0.00,,---,0.00,VWS V15.00,2017-05-29 11:26:00,
2017-05-29 06:31:00,59.9,53.4,29.77,West,272,0.0,1.0,79,0.00,,---,0.00,VWS V15.00,2017-05-29 11:31:00,
2017-05-29 06:36:00,60.0,53.1,29.77,West,259,0.0,1.0,78,0.00,,---,0.00,VWS V15.00,2017-05-29 11:36:00,
2017-05-29 06:41:00,60.1,53.2,29.77,NW,305,0.0,1.0,78,0.00,,---,0.00,VWS V15.00,2017-05-29 11:41:00,
2017-05-29 06:46:00,60.2,53.0,29.78,NW,307,0.0,4.0,77,0.00,,---,0.00,VWS V15.00,2017-05-29 11:46:00,
2017-05-29 06:51:00,60.4,53.2,29.77,SW,234,0.0,4.0,77,0.00,,---,0.00,VWS V15.00,2017-05-29 11:51:00,
2017-05-29 06:56:00,60.6,53.0,29.78,WSW,258,0.0,4.0,76,0.00,,---,0.00,VWS V15.00,2017-05-29 11:56:00,
2017-05-29 07:01:00,60.7,53.1,29.77,WNW,282,0.0,1.0,76,0.00,,---,0.00,VWS V15.00,2017-05-29 12:01:00,
2017-05-29 07:06:00,61.0,53.4,29.77,WSW,243,0.0,3.0,76,0.00,,---,0.00,VWS V15.00,2017-05-29 12:06:00,
2017-05-29 07:11:00,61.4,53.4,29.77,WNW,291,0.0,4.0,75,0.00,,---,0.00,VWS V15.00,2017-05-29 12:11:00,
2017-05-29 07:16:00,61.7,53.0,29.78,SW,229,0.0,4.0,73,0.00,,---,0.00,VWS V15.00,2017-05-29 12:16:00,
2017-05-29 07:21:00,62.2,53.1,29.77,NW,307,0.0,4.0,72,0.00,,---,0.00,VWS V15.00,2017-05-29 12:21:00,
2017-05-29 07:26:00,62.6,53.5,29.77,West,260,0.0,4.0,72,0.00,,---,0.00,VWS V15.00,2017-05-29 12:26:00,
2017-05-29 07:32:00,63.0,53.5,29.77,West,260,1.0,1.0,71,0.00,,---,0.00,VWS V15.00,2017-05-29 12:32:00,
2017-05-29 07:37:00,63.4,53.1,29.77,NW,306,0.0,2.0,69,0.00,,---,0.00,VWS V15.00,2017-05-29 12:37:00,
2017-05-29 07:42:00,63.9,53.5,29.77,WNW,287,0.0,4.0,69,0.00,,---,0.00,VWS V15.00,2017-05-29 12:42:00,
2017-05-29 07:47:00,64.3,53.5,29.77,SW,223,0.0,6.0,68,0.00,,---,0.00,VWS V15.00,2017-05-29 12:47:00,
2017-05-29 07:52:00,64.6,53.4,29.77,WSW,252,0.0,6.0,67,0.00,,---,0.00,VWS V15.00,2017-05-29 12:52:00,
2017-05-29 07:57:00,64.9,53.3,29.77,West,274,0.0,6.0,66,0.00,,---,0.00,VWS V15.00,2017-05-29 12:57:00,
2017-05-29 08:02:00,65.3,53.7,29.76,West,274,0.0,1.0,66,0.00,,---,0.00,VWS V15.00,2017-05-29 13:02:00,
2017-05-29 08:07:00,65.7,54.0,29.76,West,259,0.0,4.0,66,0.00,,---,0.00,VWS V15.00,2017-05-29 13:07:00,
2017-05-29 08:12:00,66.1,54.0,29.76,NW,309,1.0,4.0,65,0.00,,---,0.00,VWS V15.00,2017-05-29 13:12:00,
2017-05-29 08:13:00,66.2,54.1,29.76,NW,322,0.0,4.0,65,0.00,,---,0.00,VWS V15.00,2017-05-29 13:13:00,
2017-05-29 08:18:00,66.5,54.0,29.77,West,271,0.0,6.0,64,0.00,,---,0.00,VWS V15.00,2017-05-29 13:18:00,
2017-05-29 08:23:00,66.8,53.8,29.77,WNW,293,0.0,6.0,63,0.00,,---,0.00,VWS V15.00,2017-05-29 13:23:00,
2017-05-29 08:28:00,67.3,54.7,29.77,WSW,241,0.0,6.0,64,0.00,,---,0.00,VWS V15.00,2017-05-29 13:28:00,
2017-05-29 08:33:00,67.8,55.2,29.78,WNW,293,1.0,4.0,64,0.00,,---,0.00,VWS V15.00,2017-05-29 13:33:00,
2017-05-29 08:38:00,68.1,55.0,29.78,NW,319,0.0,5.0,63,0.00,,---,0.00,VWS V15.00,2017-05-29 13:38:00,
2017-05-29 08:43:00,68.3,54.3,29.78,WNW,295,0.0,7.0,61,0.00,,---,0.00,VWS V15.00,2017-05-29 13:43:00,
2017-05-29 08:45:00,68.2,54.2,29.78,WSW,250,0.0,8.0,61,0.00,,---,0.00,VWS V15.00,2017-05-29 13:45:00,
2017-05-29 08:50:00,68.3,53.9,29.77,WNW,298,0.0,8.0,60,0.00,,---,0.00,VWS V15.00,2017-05-29 13:50:00,
2017-05-29 08:55:00,68.4,54.0,29.78,NW,310,0.0,8.0,60,0.00,,---,0.00,VWS V15.00,2017-05-29 13:55:00,
2017-05-29 09:00:00,68.6,53.7,29.78,WNW,294,5.0,5.0,59,0.00,,---,0.00,VWS V15.00,2017-05-29 14:00:00,
2017-05-29 09:05:00,68.7,53.3,29.78,NW,312,0.0,5.0,58,0.00,,---,0.00,VWS V15.00,2017-05-29 14:05:00,
2017-05-29 09:10:00,69.0,54.1,29.78,NW,304,0.0,5.0,59,0.00,,---,0.00,VWS V15.00,2017-05-29 14:10:00,
2017-05-29 09:15:00,69.3,53.9,29.78,WNW,303,0.0,6.0,58,0.00,,---,0.00,VWS V15.00,2017-05-29 14:15:00,
2017-05-29 09:20:00,69.5,54.1,29.78,South,170,0.0,6.0,58,0.00,,---,0.00,VWS V15.00,2017-05-29 14:20:00,
2017-05-29 09:25:00,69.8,53.9,29.78,WNW,287,1.0,6.0,57,0.00,,---,0.00,VWS V15.00,2017-05-29 14:25:00,
2017-05-29 09:35:00,70.1,53.7,29.78,West,271,0.0,6.0,56,0.00,,---,0.00,VWS V15.00,2017-05-29 14:35:00,
2017-05-29 09:40:00,70.3,54.8,29.79,West,267,0.0,7.0,58,0.00,,---,0.00,VWS V15.00,2017-05-29 14:40:00,
2017-05-29 09:45:00,70.7,56.2,29.78,WNW,283,0.0,7.0,60,0.00,,---,0.00,VWS V15.00,2017-05-29 14:45:00,
2017-05-29 09:51:00,71.1,56.1,29.78,West,269,1.0,7.0,59,0.00,,---,0.00,VWS V15.00,2017-05-29 14:51:00,
2017-05-29 09:56:00,71.3,54.8,29.78,SW,224,0.0,7.0,56,0.00,,---,0.00,VWS V15.00,2017-05-29 14:56:00,
2017-05-29 10:01:00,71.6,55.6,29.77,SW,232,1.0,5.0,57,0.00,,---,0.00,VWS V15.00,2017-05-29 15:01:00,
2017-05-29 10:06:00,72.1,55.1,29.77,SW,233,4.0,8.0,55,0.00,,---,0.00,VWS V15.00,2017-05-29 15:06:00,
2017-05-29 10:16:00,72.4,55.3,29.78,West,267,9.0,9.0,55,0.00,,---,0.00,VWS V15.00,2017-05-29 15:16:00,
2017-05-29 10:21:00,72.7,54.6,29.78,West,264,0.0,9.0,53,0.00,,---,0.00,VWS V15.00,2017-05-29 15:21:00,
2017-05-29 10:26:00,72.9,55.3,29.77,WSW,254,4.0,9.0,54,0.00,,---,0.00,VWS V15.00,2017-05-29 15:26:00,
2017-05-29 10:31:00,73.1,55.5,29.78,West,276,4.0,5.0,54,0.00,,---,0.00,VWS V15.00,2017-05-29 15:31:00,
2017-05-29 10:36:00,73.0,55.4,29.78,WSW,242,8.0,10.0,54,0.00,,---,0.00,VWS V15.00,2017-05-29 15:36:00,